Aérodrome :
LOGIN :

S'inscrire | Disclaimer

   EN    FR    IT 

 










Légende :    VFR   VFR Marginal   IFR   IFR Intensif   IFR Très Intensif
Visi : 
Plafond : 
>= 8 km
>= 3000ft
5 à 8 km
1000 à 3000 ft
1500m à 5 km
500 à 1000 ft
800 à 1500m
200 à 500 ft
< 800m
< 200 ft
Symboles :   Orages  Brouillard  Fortes neiges  Fortes précipitations  Vent > 20 kt
SIGMETs :   Divers  Orages  Givrage  Turbulence  Onde Orograph.  Cendres Volcan.







- Altitude de l'aérodrome : 41 ft


LIRE - Pratica di Mare Air Base Pomezia

DERNIER METAR :
  • 220655Z 33005KT CAVOK 25/15 Q1021 RMK SKC VIS MIN 9999 WIND THR13 35005KT WIND THR31 /////KT BLU

METARs EXPIRÉS :
  • 220555Z 35005KT CAVOK 22/17 Q1021 RMK SKC VIS MIN 9999 WIND THR13 36006KT WIND THR31 /////KT BLU
  • 220455Z 36006KT CAVOK 21/18 Q1021 RMK SKC VIS MIN 9999 WIND THR13 35006KT WIND THR31 /////KT BLU

TAF TAF LIRE
Valide du 22 à 06h jusqu'au 22 à 15h UTC


220500Z 2206/2215 27012KT CAVOK
TEMPO 2206/2209 VRB03KT
Pas de NOTAMs connus pour ce terrain.



MET'MAP, la Météo Aéronautique d'un coup d'oeil ! - Copyright ORBIFLY Décembre 2007 - Disclaimer

ORBIFLY MET'MAP TEAM :

Programmation & Développement : Alexandra Zaïnal
Conception & Développement : Baudouin d'Aumeries
Co-Programmation & Développement : Marc-Olivier Méhu
Soutien technique & logistique : Manuel Goepfert

Contact : metmap@orbifly.com




SOURCES & CREDITS :

   NOAA